Tracking 25995 objects as of 19-Aug-2022
HD Live streaming from Space Station
objects crossing your sky now

THOR ABLESTAR DEB

Track THOR ABLESTAR DEB now!
10-day predictions


NORAD ID: 357
Int'l Code: 1961-015DX
Perigee: 878.9 km
Apogee: 891.1 km
Inclination: 66.8 °
Period: 102.5 minutes
Semi major axis: 7255 km
RCS: 0.059 m2 (small)
Launch date: June 29, 1961
Source: United States (US)
Launch site: AIR FORCE EASTERN TEST RANGE (AFETR)

Note: This is SATELLITE DEBRIS
aabbcc
Your satellite tracking list
Your tracking list is empty




NASA's NSSDC Master Catalog

Two Line Element Set (TLE):
1 00357U 61015DX  22231.13376350  .00000592  00000-0  41936-3 0  9998
2 00357  66.8103 151.7693 0008396 157.7815 202.3636 14.04623809 99178
Source of the keplerian elements: AFSPC